Location: Les Coudrans
(46.1056°N, 1.1158°W)
Time: 14:47:40
(UTC+00:00)

Cosmos 1933 Rocket - Pass Details

Date: 03 March 2021
Orbit: 607 x 630 km, 82.5° (Epoch: 19 April)

Event Time Altitude Azimuth Distance (km) Brightness Sun altitude
Rises 18:55:47 0° 175° (S) 2,858 6.9 -11.5°
Reaches altitude 10° 18:58:01 10° 170° (S) 1,961 6.0 -11.9°
Maximum altitude 19:02:13 52° 94° (E) 763 3.6 -12.6°
Drops below altitude 10° 19:06:30 10° 18° (NNE) 1,990 6.0 -13.4°
Sets 19:08:47 0° 14° (NNE) 2,905 6.9 -13.8°
